PBO Station Position Time Series. Reference Frame : NAM14
Format Version,1.1.1
4-character ID,OVLS
Station name,OVLS_SCGN_CS1999
Begin Date, 1999-06-18
End Date, 2023-06-26
Release Date, 2023-06-27
Reference position, 34.3273595279 North Latitude, -119.1419475405 East Longitude, 69.20395 meters elevation,
Date, North (mm), East (mm), Vertical (mm), North Std. Deviation (mm), East Std. Deviation (mm),              Vertical Std. Deviation (mm), Quality,
1999-06-18,0.00, 0.00, 0.00, 2.10, 1.95, 8.69, repro,
1999-06-19,-0.10, -1.12, 12.04, 2.23, 2.05, 9.20, repro,
1999-06-20,-1.02, 0.02, 8.25, 2.12, 1.93, 8.82, repro,
1999-06-21,-1.78, 0.84, 0.60, 2.16, 1.99, 8.88, repro,
1999-06-22,0.46, 0.61, 4.54, 2.24, 1.96, 9.07, repro,
1999-06-23,-0.34, 0.73, 11.82, 2.15, 1.94, 8.78, repro,
1999-06-24,-0.84, 0.06, 2.18, 2.17, 1.96, 8.85, repro,
1999-06-25,-1.52, 0.45, 11.33, 2.29, 2.03, 9.37, repro,
1999-06-26,0.49, 0.50, 10.49, 2.29, 2.00, 9.20, repro,
1999-06-27,-0.40, -0.91, 11.06, 2.26, 1.97, 9.39, repro,
1999-06-28,-0.99, -1.03, 4.70, 2.30, 2.10, 9.25, repro,
1999-06-29,-1.13, 0.92, 8.36, 2.46, 2.15, 9.98, repro,
1999-06-30,0.89, -0.25, 2.34, 2.21, 1.98, 9.25, repro,
1999-07-01,0.57, 0.28, 9.40, 2.45, 2.12, 10.14, repro,
1999-07-02,-1.16, 1.39, 15.71, 2.27, 1.97, 9.54, repro,
1999-07-03,-1.50, -0.12, 14.63, 2.30, 2.04, 9.85, repro,
1999-07-04,-1.31, -0.04, 6.11, 2.29, 2.06, 9.59, repro,
1999-07-05,-0.46, -0.20, 8.25, 2.19, 1.95, 9.10, repro,
1999-07-06,0.17, -0.38, 5.78, 2.23, 2.03, 9.41, repro,
1999-07-07,-1.16, 0.75, 12.34, 2.41, 2.14, 9.88, repro,
1999-07-08,-0.31, 0.92, 4.56, 2.32, 2.06, 9.59, repro,
1999-07-09,0.51, -0.55, 18.51, 2.29, 2.01, 9.50, repro,
1999-07-10,0.58, 0.79, 5.12, 2.30, 2.00, 9.56, repro,
1999-07-11,0.29, 0.09, 4.02, 2.33, 2.05, 9.78, repro,
1999-07-12,24.25, 3.46, -64.95, 42.81, 84.10, 138.42, repro,
1999-07-13,0.21, -0.15, 8.46, 2.21, 1.95, 9.12, repro,
1999-07-14,-0.86, -0.05, 1.42, 2.32, 2.10, 9.68, repro,
1999-07-15,0.53, -1.18, 8.15, 2.23, 2.02, 9.41, repro,
1999-07-16,-2.33, -0.20, 20.14, 2.29, 2.01, 9.63, repro,
1999-07-17,-0.72, 1.14, -0.49, 2.22, 2.00, 9.27, repro,
1999-07-18,-0.83, 1.01, 9.89, 2.36, 2.02, 9.71, repro,
1999-07-19,-1.62, 0.34, 5.02, 2.36, 2.08, 9.76, repro,
1999-07-20,-1.32, 0.40, 14.49, 2.41, 2.11, 10.07, repro,
1999-07-21,-0.09, -0.15, 1.40, 2.23, 2.07, 9.30, repro,
1999-07-22,-0.66, 0.61, 1.64, 2.32, 2.03, 9.64, repro,
1999-07-23,-1.12, 0.85, 6.51, 2.28, 1.95, 9.22, repro,
1999-07-24,-1.64, 0.66, 6.40, 2.35, 2.07, 9.87, repro,
1999-07-25,-0.86, 1.26, 6.15, 2.31, 2.01, 9.34, repro,
1999-07-26,-1.44, 0.33, 4.93, 2.31, 2.00, 9.25, repro,
1999-07-27,-0.60, 1.86, 19.36, 2.46, 2.26, 10.23, repro,
1999-07-28,-1.72, 1.71, 7.78, 2.13, 1.93, 8.79, repro,
1999-07-29,-0.95, 2.50, 13.01, 2.32, 2.15, 9.35, repro,
1999-07-30,-0.60, 2.35, 21.83, 2.25, 2.11, 9.44, repro,
1999-07-31,-0.90, -0.83, 5.38, 2.12, 1.92, 8.69, repro,
1999-08-01,-0.80, -0.31, 4.66, 2.17, 1.95, 8.77, repro,
1999-08-02,0.03, 1.66, -9.86, 2.28, 2.06, 9.33, repro,
1999-08-03,-0.49, 0.79, 5.24, 2.37, 2.15, 9.61, repro,
1999-08-04,-1.13, 1.28, -1.62, 2.15, 1.94, 8.88, repro,
1999-08-05,-2.75, 0.17, 4.89, 2.24, 2.01, 9.01, repro,
1999-08-06,-1.32, 0.13, 6.62, 2.27, 2.04, 9.14, repro,
1999-08-07,0.19, 0.63, 2.82, 2.31, 2.08, 9.47, repro,
1999-08-08,-1.19, 1.29, 5.25, 2.17, 1.92, 8.90, repro,
1999-08-09,-1.02, 0.27, 7.29, 2.31, 2.09, 9.38, repro,
1999-08-10,0.56, -0.46, -1.31, 2.25, 2.05, 9.18, repro,
1999-08-11,-0.90, -0.04, 2.34, 2.22, 2.09, 9.34, repro,
1999-08-12,-0.14, 1.88, 2.09, 2.33, 2.13, 9.70, repro,
1999-08-13,-0.99, 0.64, -1.76, 2.14, 1.89, 8.72, repro,
1999-08-14,-0.26, 1.60, 0.91, 2.19, 1.98, 9.12, repro,
1999-08-15,0.71, -0.21, 3.62, 2.37, 2.02, 9.37, repro,
1999-08-16,-0.21, 1.54, 6.41, 2.34, 2.09, 9.59, repro,
1999-08-17,2.05, 1.72, -3.37, 2.23, 2.11, 9.36, repro,
1999-08-18,-0.99, 2.15, -6.02, 2.16, 1.98, 9.09, repro,
1999-08-19,-0.50, 1.77, 14.96, 2.15, 1.93, 8.83, repro,
1999-08-20,0.13, 1.86, 0.89, 2.26, 2.03, 9.21, repro,
1999-08-21,-0.38, 0.61, 4.70, 2.19, 1.94, 8.93, repro,
1999-08-22,-0.96, -0.12, -6.53, 2.21, 2.08, 9.25, repro,
1999-08-23,-0.79, 2.49, 2.29, 2.30, 1.98, 9.32, repro,
1999-08-24,0.29, 1.99, 4.87, 2.32, 2.09, 9.60, repro,
1999-08-25,0.30, 2.04, 0.84, 2.33, 2.12, 9.48, repro,
1999-08-26,-0.24, 1.50, 22.64, 2.36, 1.97, 9.60, repro,
1999-08-27,-0.22, 2.59, 9.95, 2.33, 2.16, 9.42, repro,
1999-08-28,0.28, 1.30, 7.28, 2.29, 2.14, 9.56, repro,
1999-08-29,0.19, 1.27, 7.54, 2.28, 2.08, 10.49, repro,
1999-08-30,-0.48, 2.40, 13.94, 2.45, 2.46, 10.05, repro,
1999-08-31,0.75, 1.96, 0.38, 2.28, 2.11, 9.35, repro,
1999-09-01,-0.38, 2.25, 7.23, 2.50, 2.19, 10.21, repro,
1999-09-02,-0.49, 3.48, 3.67, 2.40, 2.16, 9.64, repro,
1999-09-03,1.60, 1.53, -5.00, 2.35, 2.08, 9.70, repro,
1999-09-04,-0.53, 2.28, 5.42, 2.57, 2.30, 10.33, repro,
1999-09-05,-0.77, 2.68, 2.40, 2.24, 2.07, 9.19, repro,
1999-09-06,-0.68, 0.62, 9.59, 2.33, 2.07, 9.49, repro,
1999-09-07,-0.80, 2.17, 1.40, 2.67, 2.16, 11.00, repro,
1999-09-08,0.07, 2.02, 11.84, 2.47, 2.08, 10.11, repro,
1999-09-09,0.79, 1.45, -12.50, 2.41, 2.06, 9.74, repro,
1999-09-10,-0.76, 1.95, 10.54, 2.38, 2.10, 9.34, repro,
1999-09-11,-1.54, 3.13, 1.55, 2.52, 2.16, 9.93, repro,
1999-09-12,-0.75, 1.00, -3.22, 2.40, 2.08, 9.58, repro,
1999-09-13,0.05, 1.14, 6.51, 2.33, 2.03, 9.34, repro,
1999-09-14,-0.35, 1.41, -8.04, 2.29, 1.99, 8.90, repro,
1999-09-15,1.67, 2.90, 2.26, 2.43, 2.16, 9.79, repro,
1999-09-16,-2.08, 2.21, 11.02, 2.31, 2.08, 9.08, repro,
1999-09-17,-1.66, 2.41, 8.95, 2.42, 2.09, 9.50, repro,
1999-09-18,-1.53, 1.49, -7.07, 2.40, 2.08, 9.47, repro,
1999-09-19,-0.02, 0.82, -2.48, 2.24, 1.95, 8.84, repro,
1999-09-20,0.41, 3.11, -2.26, 2.48, 2.23, 9.78, repro,
1999-09-21,-1.85, -0.18, -0.90, 2.51, 2.09, 10.14, repro,
1999-09-22,-1.54, 2.01, 11.02, 2.35, 2.08, 9.51, repro,
1999-09-23,0.07, 3.04, -0.08, 2.51, 2.20, 9.98, repro,
1999-09-24,-0.47, 1.83, -1.78, 2.37, 2.08, 9.45, repro,
1999-09-25,0.81, 3.42, 0.68, 2.27, 2.06, 9.24, repro,
1999-09-26,1.10, 2.17, -1.70, 2.68, 2.48, 10.89, repro,
1999-09-27,0.67, 2.85, 4.20, 2.42, 2.16, 10.03, repro,
1999-09-28,-0.33, 2.24, -5.25, 2.60, 2.34, 10.17, repro,
1999-09-29,-1.38, 3.27, -3.59, 2.80, 2.54, 10.96, repro,
1999-09-30,-2.07, 2.08, -1.63, 2.91, 2.65, 11.38, repro,
1999-10-01,-2.08, 2.68, 7.07, 2.91, 2.50, 11.57, repro,
1999-10-02,-0.20, 2.93, 6.44, 2.43, 2.25, 10.02, repro,
1999-10-03,2.37, 2.37, -1.35, 2.50, 2.32, 10.22, repro,
1999-10-05,0.57, 3.81, 3.67, 2.36, 2.13, 9.29, repro,
1999-10-06,-2.31, 2.87, 7.55, 2.33, 2.11, 9.22, repro,
1999-10-07,-1.25, 0.73, 1.45, 2.40, 2.07, 9.52, repro,
1999-10-08,0.53, 1.48, 3.81, 2.42, 2.13, 9.49, repro,
1999-10-09,0.25, 1.76, 4.48, 2.38, 2.08, 9.41, repro,
1999-10-10,-0.97, 2.90, 7.57, 2.36, 2.07, 9.41, repro,
1999-10-11,-1.14, 2.67, 7.82, 2.34, 2.15, 9.53, repro,
1999-10-12,-0.72, 2.75, -2.12, 2.31, 2.03, 9.20, repro,
1999-10-13,-1.41, 3.39, -3.15, 2.56, 2.25, 10.30, repro,
1999-10-14,-0.37, 2.06, 1.99, 2.28, 2.04, 9.40, repro,
1999-10-15,0.17, 4.38, 6.10, 2.36, 2.11, 9.52, repro,
1999-10-16,1.95, -0.24, 25.09, 2.25, 2.04, 9.27, repro,
1999-10-17,2.75, -0.56, 19.23, 2.63, 2.37, 10.92, repro,
1999-10-18,2.30, -2.73, 18.72, 2.48, 2.13, 9.91, repro,
1999-10-19,4.84, -2.55, 20.04, 2.43, 2.03, 9.91, repro,
1999-10-20,3.10, -1.42, 15.70, 2.66, 2.30, 11.05, repro,
1999-10-21,3.06, -2.82, 16.36, 2.32, 2.08, 9.49, repro,
1999-10-22,4.47, -2.64, 15.08, 2.54, 2.41, 11.07, repro,
1999-10-23,4.29, -1.29, 8.78, 2.26, 2.05, 9.21, repro,
1999-10-24,3.64, -1.17, 18.77, 2.40, 2.21, 10.28, repro,
1999-10-25,4.25, -2.96, 18.93, 2.26, 2.09, 9.29, repro,
1999-10-26,3.56, -1.70, 23.79, 2.14, 1.94, 9.00, repro,
1999-10-27,3.83, -1.38, 26.67, 2.26, 1.99, 9.39, repro,
1999-10-28,5.05, -1.90, 19.41, 2.34, 2.10, 9.53, repro,
1999-10-29,4.03, -2.83, 16.46, 2.36, 2.12, 9.43, repro,
1999-10-30,3.23, -1.80, 15.25, 2.23, 2.00, 9.21, repro,
1999-10-31,4.14, -2.89, 17.03, 2.42, 2.08, 9.71, repro,
1999-11-01,3.21, -4.09, 18.07, 2.59, 2.25, 10.64, repro,
1999-11-02,4.63, -2.17, 21.52, 2.32, 2.02, 9.43, repro,
1999-11-03,4.42, -2.68, 16.59, 2.64, 2.25, 11.01, repro,
1999-11-04,3.93, -1.66, 20.68, 2.35, 2.04, 9.52, repro,
1999-11-05,3.28, -1.89, 22.94, 2.26, 2.01, 9.33, repro,
1999-11-06,2.22, -2.29, 18.22, 2.29, 2.01, 9.41, repro,
1999-11-07,2.86, -1.73, 18.90, 2.35, 2.06, 9.62, repro,
1999-11-08,4.44, -3.14, 23.47, 2.27, 2.02, 9.48, repro,
1999-11-09,5.22, -3.45, 20.00, 2.18, 2.00, 8.98, repro,
1999-11-10,1.44, -2.04, 17.87, 2.22, 1.96, 9.29, repro,
1999-11-11,2.89, -0.77, 22.98, 2.17, 2.00, 9.23, repro,
1999-11-12,3.70, -2.77, 15.94, 2.28, 2.06, 9.28, repro,
1999-11-13,4.16, -3.27, 25.99, 2.33, 2.04, 9.42, repro,
1999-11-14,3.45, -4.32, 21.56, 2.20, 1.98, 9.06, repro,
1999-11-15,3.12, -2.36, 21.27, 2.34, 2.08, 9.88, repro,
1999-11-16,3.54, -3.74, 24.73, 2.27, 2.07, 9.40, repro,
1999-11-17,2.47, -2.62, 24.43, 2.22, 1.99, 9.15, repro,
1999-11-18,3.22, -3.21, 24.54, 2.31, 2.07, 9.50, repro,
1999-11-19,3.61, -3.77, 22.71, 2.37, 2.23, 9.81, repro,
1999-11-20,5.29, -1.60, 25.88, 2.34, 2.15, 9.52, repro,
1999-11-21,4.01, -2.24, 7.54, 2.51, 2.29, 10.39, repro,
1999-11-22,3.44, -3.25, 22.41, 2.31, 2.06, 9.43, repro,
1999-11-23,4.95, -5.23, 12.38, 2.56, 2.46, 10.76, repro,
1999-11-24,4.01, -1.88, 13.74, 2.78, 2.73, 12.32, repro,
1999-11-25,4.27, 0.32, 26.04, 2.48, 2.29, 10.41, repro,
1999-11-26,4.26, -2.25, 15.81, 2.43, 2.41, 10.13, repro,
1999-11-27,2.08, -1.72, 20.36, 2.13, 1.97, 8.90, repro,
1999-11-28,4.94, -2.22, 11.37, 2.23, 2.07, 9.31, repro,
1999-11-29,4.33, -2.27, 12.13, 2.28, 2.12, 9.66, repro,
1999-11-30,4.33, -2.77, 6.09, 2.41, 2.10, 9.93, repro,
1999-12-01,4.49, -1.23, 31.22, 2.47, 2.34, 10.48, repro,
1999-12-02,3.41, -1.57, 15.87, 2.21, 2.06, 9.22, repro,
1999-12-03,1.56, -2.72, 12.64, 2.38, 2.36, 10.07, repro,
1999-12-04,1.86, -1.72, 15.45, 2.51, 2.35, 10.45, repro,
1999-12-05,1.81, -2.77, 16.88, 2.30, 2.24, 9.69, repro,
1999-12-06,3.77, -2.00, 12.98, 2.40, 2.15, 10.00, repro,
1999-12-07,2.18, -3.01, 23.48, 2.30, 2.13, 9.84, repro,
1999-12-08,2.05, -2.40, 12.50, 2.84, 2.57, 11.43, repro,
1999-12-09,3.17, -1.95, 25.86, 2.35, 2.32, 9.86, repro,
1999-12-10,3.37, -3.11, -0.21, 2.19, 2.05, 9.18, repro,
1999-12-11,2.76, -5.90, 13.12, 2.37, 2.32, 10.20, repro,
1999-12-12,1.88, -4.10, 18.41, 2.41, 2.28, 10.19, repro,
1999-12-13,1.56, -2.95, 11.90, 2.40, 2.51, 10.10, repro,
1999-12-14,3.16, -3.28, 15.01, 2.48, 2.24, 10.19, repro,
1999-12-15,2.73, -0.85, 9.92, 2.61, 2.42, 11.59, repro,
1999-12-16,2.10, -2.70, 19.98, 2.42, 2.22, 10.26, repro,
1999-12-17,3.37, -1.89, 16.97, 2.47, 2.25, 10.26, repro,
1999-12-18,1.06, -2.40, 13.63, 2.70, 2.39, 11.18, repro,
1999-12-19,-0.02, -2.86, 12.69, 2.31, 2.27, 9.82, repro,
1999-12-20,2.38, -2.40, 18.86, 2.36, 2.25, 10.21, repro,
1999-12-21,0.97, -1.32, 29.09, 2.57, 2.33, 10.95, repro,
1999-12-22,4.70, -3.75, 12.09, 2.42, 2.20, 10.16, repro,
1999-12-23,2.08, -0.82, 18.14, 2.44, 2.34, 10.16, repro,
1999-12-24,2.59, -0.86, 10.49, 2.51, 2.50, 11.20, repro,
1999-12-25,3.23, -2.23, 1.10, 2.18, 2.11, 9.26, repro,
1999-12-26,2.56, -1.76, 12.63, 2.39, 2.27, 10.35, repro,
1999-12-27,2.08, -1.84, 6.39, 2.23, 2.11, 9.29, repro,
1999-12-28,2.94, -2.64, 13.58, 2.43, 2.08, 10.17, repro,
1999-12-29,1.64, -1.69, 16.84, 2.22, 2.07, 9.32, repro,
1999-12-30,3.59, -2.14, 15.64, 2.19, 2.11, 9.51, repro,
1999-12-31,4.03, -2.52, 12.49, 2.45, 2.17, 10.60, repro,
2000-01-01,2.72, -4.08, 13.62, 2.37, 2.12, 9.96, repro,
2000-01-02,0.39, -3.79, 8.24, 2.16, 2.10, 9.26, repro,
2000-01-03,2.98, -3.91, 14.60, 2.24, 1.99, 9.53, repro,
2000-01-04,3.23, -3.60, 6.99, 2.22, 1.94, 9.17, repro,
2000-01-05,3.41, -3.80, 11.66, 2.20, 1.95, 9.28, repro,
2000-01-06,2.93, -2.72, 6.52, 2.13, 1.95, 8.95, repro,
2000-01-07,3.24, -2.98, 4.64, 2.13, 1.92, 8.73, repro,
2000-01-08,2.06, -2.90, 5.06, 2.04, 1.88, 8.53, repro,
2000-01-09,2.96, -2.85, 18.17, 2.09, 1.92, 8.69, repro,
2000-01-10,3.70, -5.04, 7.74, 2.05, 1.94, 8.72, repro,
2000-01-11,3.78, -3.40, 5.92, 2.09, 1.92, 8.87, repro,
2000-01-12,2.69, -1.32, 10.28, 2.26, 2.12, 9.80, repro,
2000-01-13,2.41, -3.15, 5.69, 2.39, 2.10, 10.55, repro,
2000-01-14,1.37, -2.66, 7.96, 2.27, 2.04, 9.70, repro,
2000-01-15,2.86, -2.72, 12.38, 2.25, 2.05, 9.92, repro,
2000-01-16,2.84, -4.00, 4.91, 2.06, 1.90, 8.69, repro,
2000-01-17,2.32, -4.40, 9.94, 2.26, 2.05, 9.60, repro,
2000-01-18,0.90, -2.63, 24.25, 2.20, 2.03, 9.33, repro,
2000-01-19,2.56, -1.62, 17.22, 2.15, 1.95, 8.95, repro,
2000-01-20,5.24, -3.03, 10.81, 2.23, 1.94, 9.58, repro,
2000-01-21,2.76, -4.46, 15.46, 2.10, 1.96, 8.93, repro,
2000-01-22,3.79, -2.72, 23.43, 2.35, 2.01, 9.62, repro,
2000-01-23,2.68, -2.36, 11.55, 2.23, 2.03, 9.49, repro,
2000-01-24,3.17, -2.46, 17.26, 2.17, 1.94, 8.94, repro,
2000-01-25,4.00, -4.72, 8.68, 2.11, 1.88, 8.78, repro,
2000-01-26,2.64, -3.15, 21.42, 2.20, 1.88, 9.16, repro,
2000-01-27,6.45, -4.17, 4.16, 2.33, 2.04, 9.65, repro,
2000-01-28,3.42, -3.08, 14.14, 2.17, 1.96, 9.15, repro,
2000-01-29,2.58, -3.34, 9.65, 2.30, 2.11, 10.17, repro,
2000-01-30,3.79, -4.97, 10.46, 2.19, 1.89, 9.20, repro,
2000-01-31,0.24, -29.80, 36.57, 182.67, 663.58, 391.50, repro,
2000-02-01,0.69, -3.96, 8.88, 2.30, 2.01, 10.01, repro,
2000-02-02,5.26, -3.97, 14.17, 2.33, 1.95, 9.89, repro,
2000-02-03,3.87, -2.61, 15.17, 2.39, 2.01, 10.32, repro,
2000-02-04,2.91, -2.00, 21.68, 2.14, 1.92, 9.21, repro,
2000-02-05,1.53, -4.84, 12.49, 2.18, 2.01, 9.27, repro,
2000-02-06,3.59, -3.21, 10.67, 2.09, 1.93, 8.64, repro,
2000-02-07,5.19, -3.48, 7.40, 2.21, 1.88, 9.07, repro,
2000-02-08,3.38, -3.37, 12.91, 2.20, 2.02, 9.60, repro,
2000-02-09,3.92, -4.43, 5.09, 2.19, 2.00, 9.34, repro,
2000-02-10,2.38, -4.44, 2.06, 2.18, 2.05, 8.95, repro,
2000-02-11,3.07, -5.58, 8.86, 2.04, 1.86, 8.46, repro,
2000-02-12,2.91, -4.74, 0.35, 2.13, 1.94, 8.97, repro,
2000-02-13,4.27, -4.74, 8.62, 2.08, 1.93, 8.60, repro,
2000-02-14,2.76, -2.94, 12.88, 2.10, 1.90, 8.71, repro,
2000-02-15,4.84, -4.70, 7.64, 2.10, 1.87, 8.72, repro,
2000-02-16,4.44, -2.52, 0.57, 2.16, 1.97, 8.94, repro,
2000-02-17,3.60, -5.58, 10.77, 2.03, 1.85, 8.41, repro,
2000-02-18,3.61, -2.91, 5.44, 2.04, 1.85, 8.42, repro,
2000-02-19,4.31, -4.44, 9.89, 2.10, 1.87, 8.60, repro,
2000-02-20,2.48, -4.20, 12.83, 2.17, 1.92, 8.88, repro,
2000-02-21,4.84, -5.03, 12.75, 2.16, 1.90, 8.86, repro,
2000-02-22,5.87, -3.51, 13.59, 2.09, 1.86, 8.62, repro,
2000-02-23,2.37, -3.90, 0.54, 2.17, 2.03, 8.97, repro,
2000-02-24,4.17, -5.48, -1.44, 2.04, 1.83, 8.39, repro,
2000-02-25,3.87, -5.10, 8.05, 2.03, 1.84, 8.38, repro,
2000-02-26,5.30, -5.45, 6.01, 2.20, 2.10, 9.22, repro,
2000-02-27,4.35, -4.55, 6.87, 2.10, 1.93, 8.66, repro,
2000-02-28,3.22, -5.37, 9.32, 2.14, 1.85, 8.75, repro,
2000-02-29,4.25, -4.71, -0.10, 2.41, 2.13, 10.33, repro,
2000-03-01,6.35, -4.88, -2.99, 2.49, 2.59, 11.06, repro,
2000-03-02,4.26, -3.77, 0.76, 2.12, 1.98, 9.05, repro,
2000-03-03,4.96, -4.85, 14.26, 2.29, 2.04, 9.68, repro,
2000-03-04,4.69, -3.31, 11.89, 2.27, 2.02, 9.28, repro,
2000-03-05,3.38, -3.88, 11.67, 2.15, 1.93, 8.73, repro,
2000-03-06,3.55, -4.80, 19.37, 2.28, 2.06, 9.65, repro,
2000-03-07,5.16, -6.14, 7.64, 2.23, 2.08, 9.37, repro,
2000-03-08,6.03, -6.84, 10.58, 2.26, 2.10, 9.45, repro,
2000-03-09,5.87, -4.83, 7.00, 2.20, 1.99, 9.16, repro,
2000-03-10,6.22, -2.98, -1.89, 2.45, 2.18, 10.10, repro,
2000-03-11,6.16, -3.41, 0.01, 2.29, 2.05, 9.50, repro,
2000-03-12,6.01, -6.38, -3.83, 2.45, 2.25, 10.33, repro,
2000-03-13,5.56, -7.61, 7.31, 2.49, 2.26, 10.63, repro,
2000-03-14,4.50, -6.14, 4.07, 2.33, 2.12, 9.68, repro,
2000-03-15,2.76, -6.03, 17.65, 2.38, 2.10, 9.72, repro,
2000-03-16,5.21, -4.92, 10.20, 2.18, 1.99, 9.15, repro,
2000-03-17,7.11, -4.81, 4.07, 2.24, 2.11, 9.43, repro,
2000-03-18,6.10, -6.09, 6.87, 2.25, 2.02, 9.40, repro,
2000-03-19,5.15, -5.34, 4.17, 2.19, 1.98, 9.07, repro,
2000-03-20,6.67, -5.60, 10.41, 2.52, 2.13, 10.36, repro,
2000-03-21,4.10, -4.86, 11.22, 2.31, 2.02, 9.27, repro,
2000-03-22,5.92, -4.70, 6.15, 2.40, 2.23, 10.07, repro,
2000-03-23,4.72, -4.76, 2.19, 2.37, 2.16, 9.81, repro,
2000-03-24,4.42, -6.29, -0.39, 2.33, 2.05, 9.53, repro,
2000-03-25,5.03, -4.94, 10.49, 2.15, 1.89, 8.64, repro,
2000-03-26,4.18, -4.43, 11.47, 2.35, 2.01, 9.48, repro,
2000-03-27,4.71, -4.43, 9.75, 2.43, 2.08, 9.98, repro,
2000-03-28,3.50, -3.63, 11.01, 2.21, 1.87, 8.84, repro,
2000-03-29,4.83, -5.47, 6.24, 2.30, 2.01, 9.36, repro,
2000-03-30,4.67, -4.71, -0.44, 2.19, 1.89, 8.85, repro,
2000-03-31,6.25, -3.36, 4.02, 2.29, 1.99, 9.36, repro,
2000-04-01,4.51, -4.55, 11.18, 2.25, 1.99, 9.33, repro,
2000-04-02,5.67, -5.19, 14.59, 2.32, 2.04, 9.45, repro,
2000-04-03,5.46, -4.49, 3.59, 2.19, 1.87, 8.81, repro,
2000-04-04,6.93, -4.13, 7.28, 2.27, 1.98, 9.15, repro,
2000-04-05,6.00, -4.48, 11.92, 2.28, 1.98, 9.18, repro,
2000-04-06,5.36, -4.11, 17.76, 2.33, 1.92, 9.22, repro,
2000-04-07,5.06, -4.33, 6.04, 2.32, 1.92, 9.15, repro,
2000-04-08,5.29, -4.03, 0.05, 2.26, 2.01, 9.29, repro,
2000-04-09,6.98, -4.65, 8.92, 2.30, 2.09, 9.43, repro,
2000-04-10,4.93, -5.75, -2.81, 2.25, 2.02, 9.34, repro,
2000-04-11,4.52, -5.08, 10.77, 2.20, 1.95, 8.98, repro,
2000-04-12,4.70, -4.24, 10.26, 2.27, 1.92, 9.39, repro,
2000-04-13,4.74, -5.52, 7.95, 2.22, 1.93, 9.25, repro,
2000-04-14,5.21, -3.66, 10.45, 2.22, 1.88, 9.05, repro,
2000-04-15,5.43, -6.26, 10.44, 2.23, 2.01, 9.18, repro,
2000-04-16,4.96, -6.25, 6.74, 2.16, 1.89, 8.96, repro,
2000-04-17,3.27, -3.98, 15.39, 2.20, 2.02, 9.23, repro,
2000-04-18,7.03, -4.45, 10.19, 2.26, 2.05, 9.32, repro,
2000-04-19,6.71, -5.98, 7.06, 2.19, 1.92, 9.15, repro,
2000-04-20,6.76, -7.43, -2.23, 2.20, 1.91, 9.14, repro,
2000-04-21,6.14, -5.18, 1.16, 2.28, 2.03, 9.58, repro,
2000-04-22,6.29, -4.94, 19.31, 2.17, 1.94, 8.99, repro,
2000-04-23,5.75, -4.23, 15.80, 2.25, 2.06, 9.29, repro,
2000-04-24,6.71, -4.80, 16.30, 2.19, 1.90, 9.11, repro,
2000-04-25,5.60, -4.88, 2.19, 2.15, 1.87, 8.85, repro,
2000-04-26,6.60, -7.07, 4.45, 2.18, 1.96, 9.04, repro,
2000-04-27,5.00, -5.75, 10.03, 2.17, 1.96, 9.06, repro,
2000-04-28,4.54, -7.29, 8.11, 2.26, 2.09, 9.43, repro,
2000-04-29,6.46, -4.50, 5.31, 2.15, 1.93, 8.86, repro,
2000-04-30,7.20, -4.62, 2.31, 2.19, 1.97, 9.20, repro,
2000-05-01,6.17, -6.37, 0.76, 2.17, 1.96, 8.98, repro,
2000-05-02,5.37, -3.89, 9.62, 2.33, 2.16, 9.63, repro,
2000-05-03,6.55, -5.75, 8.36, 2.39, 2.25, 10.01, repro,
2000-05-04,6.87, -6.77, 18.79, 2.27, 2.07, 9.39, repro,
2000-05-05,4.84, -6.41, 18.34, 2.19, 1.97, 9.05, repro,
2000-05-06,4.70, -5.49, 15.33, 2.19, 1.98, 9.09, repro,
2000-05-07,4.48, -6.00, 24.00, 2.17, 1.97, 8.96, repro,
2000-05-08,5.91, -5.85, 24.49, 2.19, 1.99, 9.10, repro,
2000-05-09,5.50, -3.03, 18.03, 2.21, 1.99, 9.20, repro,
2000-05-10,6.01, -5.03, 24.71, 2.17, 1.96, 8.93, repro,
2000-05-11,5.72, -3.69, 18.90, 2.20, 2.02, 9.21, repro,
2000-05-12,5.00, -3.58, 20.75, 2.17, 1.97, 8.95, repro,
2000-05-13,5.31, -5.11, 13.26, 2.18, 1.96, 8.91, repro,
2000-05-14,4.00, -2.79, 18.77, 2.22, 1.97, 9.02, repro,
2000-05-15,4.69, -3.86, 12.24, 2.32, 2.02, 9.41, repro,
2000-05-16,4.32, -6.28, 11.40, 2.20, 1.96, 9.02, repro,
2000-05-17,4.80, -4.30, 18.89, 2.17, 1.88, 8.77, repro,
2000-05-18,4.84, -6.41, 22.71, 2.17, 1.98, 8.94, repro,
2000-05-19,5.56, -4.80, 13.07, 2.15, 1.90, 8.97, repro,
2000-05-20,6.69, -4.77, 17.79, 2.31, 2.11, 9.50, repro,
2000-05-21,5.81, -4.26, 17.42, 2.27, 2.04, 9.38, repro,
2000-05-22,5.81, -4.96, 17.43, 2.25, 2.03, 9.26, repro,
2000-05-23,4.71, -3.13, 18.74, 2.40, 2.04, 9.47, repro,
2000-05-24,5.82, -4.14, 16.33, 2.40, 2.25, 9.72, repro,
2000-05-25,5.11, -3.69, 10.66, 2.26, 2.06, 9.61, repro,
2000-05-26,2.24, -3.95, 25.96, 2.34, 2.10, 9.65, repro,
2000-05-27,5.59, -3.90, 24.50, 2.30, 2.02, 9.49, repro,
2000-05-28,5.79, -3.48, 10.95, 2.34, 2.04, 9.88, repro,
2000-05-29,5.90, -4.47, 8.49, 2.21, 2.00, 9.27, repro,
2000-05-30,6.11, -5.41, 7.30, 2.16, 1.91, 9.04, repro,
2000-05-31,6.18, -6.72, 10.22, 2.24, 2.00, 9.21, repro,
2000-06-01,5.05, -5.65, 9.97, 2.29, 2.07, 9.62, repro,
2000-06-02,5.32, -3.98, 16.01, 2.11, 1.95, 8.71, repro,
2000-06-03,5.00, -4.75, 12.33, 2.05, 1.85, 8.42, repro,
2000-06-04,3.22, -6.16, 10.07, 2.14, 2.04, 8.91, repro,
2000-06-05,6.26, -5.39, 12.45, 2.16, 2.03, 9.01, repro,
2000-06-06,5.93, -5.77, 10.29, 2.19, 2.03, 9.07, repro,
2000-06-07,5.14, -6.11, 19.25, 2.17, 2.02, 8.97, repro,
2000-06-08,4.43, -3.64, 4.98, 2.09, 1.89, 8.65, repro,
2000-06-09,4.51, -3.76, 22.81, 2.16, 1.98, 9.00, repro,
2000-06-10,5.40, -6.48, 22.03, 2.17, 2.06, 9.10, repro,
2000-06-11,6.27, -7.14, 11.94, 2.13, 1.93, 8.67, repro,
2000-06-12,5.92, -6.78, 17.85, 2.21, 2.05, 8.96, repro,
2000-06-13,4.92, -6.81, 20.46, 2.18, 1.97, 8.83, repro,
2000-06-14,5.74, -5.25, 21.41, 2.08, 1.88, 8.51, repro,
2000-06-15,4.24, -4.36, 22.16, 2.29, 2.01, 9.56, repro,
2000-06-16,3.73, -6.49, 16.89, 2.20, 2.02, 9.26, repro,
2000-06-17,4.52, -5.35, 18.39, 2.18, 2.05, 9.00, repro,
2000-06-18,4.75, -4.95, 29.45, 2.17, 1.98, 8.94, repro,
2000-06-19,5.74, -4.82, 20.95, 2.19, 1.99, 9.25, repro,
2000-06-20,4.87, -5.07, 18.63, 2.15, 1.90, 9.01, repro,
2000-06-21,5.79, -5.58, 22.29, 2.17, 1.96, 9.06, repro,
2000-06-22,4.97, -3.98, 29.27, 2.18, 1.95, 9.04, repro,
2000-06-23,5.92, -6.20, 14.30, 2.21, 1.98, 9.00, repro,
2000-06-24,4.43, -5.15, 13.86, 2.18, 1.98, 9.07, repro,
2000-06-25,5.52, -2.77, 9.38, 2.16, 1.95, 9.17, repro,
2000-06-26,5.80, -5.23, 15.16, 2.27, 1.95, 9.47, repro,
2000-06-27,5.13, -5.50, 16.11, 2.33, 1.97, 9.58, repro,
2000-06-28,2.73, -5.83, 21.68, 2.29, 1.99, 9.46, repro,
2000-06-29,4.93, -6.64, 17.89, 2.20, 2.00, 9.21, repro,
2000-06-30,5.11, -6.75, 11.37, 2.19, 1.96, 8.93, repro,
2000-07-01,4.48, -5.50, 15.98, 2.21, 1.90, 9.12, repro,
2000-07-02,3.88, -4.51, 22.69, 2.20, 1.90, 9.07, repro,
2000-07-03,4.08, -7.43, 23.12, 2.24, 2.01, 9.41, repro,
2000-07-04,4.56, -5.56, 17.20, 2.25, 2.06, 9.18, repro,
2000-07-05,5.95, -5.28, 11.52, 2.30, 2.10, 9.59, repro,
2000-07-06,3.99, -4.58, 21.39, 2.19, 1.95, 8.94, repro,
2000-07-07,5.26, -5.47, 14.31, 2.16, 1.90, 8.95, repro,
2000-07-08,5.57, -5.51, 12.97, 2.15, 1.91, 8.86, repro,
2000-07-09,4.10, -5.27, 13.91, 2.25, 1.98, 9.36, repro,
2000-07-10,4.15, -5.84, 20.34, 2.17, 1.89, 8.92, repro,
2000-07-11,4.67, -5.07, 25.38, 2.16, 1.91, 8.89, repro,
2000-07-12,4.63, -5.41, 17.69, 2.13, 1.88, 8.74, repro,
2000-07-13,4.62, -4.69, 20.00, 2.15, 1.91, 8.95, repro,
2000-07-14,4.37, -5.48, 19.67, 2.30, 2.04, 9.59, repro,
2000-07-15,4.59, -5.40, 10.96, 2.20, 1.95, 9.18, repro,
2000-07-16,3.07, -5.95, 17.93, 2.26, 2.05, 9.29, repro,
2000-07-17,5.25, -4.29, 13.13, 2.14, 1.88, 8.80, repro,
2000-07-18,5.77, -5.08, 11.11, 2.16, 1.95, 9.03, repro,
2000-07-19,4.40, -4.96, 22.27, 2.32, 2.06, 9.72, repro,
2000-07-20,5.09, -6.42, 11.88, 2.15, 1.90, 8.90, repro,
2000-07-21,4.24, -4.69, 21.34, 2.22, 2.04, 9.29, repro,
2000-07-22,4.26, -5.25, 12.25, 2.31, 2.11, 9.91, repro,
2000-07-23,6.37, -3.75, 15.35, 2.27, 1.98, 9.35, repro,
2000-07-24,4.35, -4.63, 19.96, 2.17, 1.91, 8.92, repro,
2000-07-25,5.75, -6.18, 21.93, 2.19, 1.92, 8.96, repro,
2000-07-26,4.57, -5.15, 20.45, 2.18, 1.92, 8.90, repro,
2000-07-27,4.01, -5.08, 24.69, 2.27, 2.02, 9.40, repro,
2000-07-28,4.28, -4.68, 20.53, 2.31, 2.01, 9.43, repro,
2000-07-29,5.56, -4.75, 20.93, 2.30, 1.99, 9.45, repro,
2000-07-30,5.67, -4.44, 25.90, 2.18, 1.91, 8.89, repro,
2000-07-31,4.00, -4.04, 26.66, 2.19, 1.92, 8.92, repro,
2000-08-01,2.18, -2.52, 18.06, 2.29, 2.12, 10.02, repro,
2000-08-02,5.18, -5.28, 17.20, 2.30, 2.08, 9.67, repro,
2000-08-03,3.14, -5.09, 16.86, 2.21, 1.98, 9.21, repro,
2000-08-04,4.46, -3.49, 17.69, 2.27, 1.96, 9.29, repro,
2000-08-05,5.45, -4.39, 10.17, 2.25, 1.99, 9.39, repro,
2000-08-06,5.89, -2.50, 17.28, 2.29, 2.05, 9.64, repro,
2000-08-07,4.53, -4.36, 17.88, 2.32, 2.04, 9.49, repro,
2000-08-08,4.09, -4.69, 15.29, 2.21, 1.97, 8.96, repro,
2000-08-09,3.89, -4.59, 24.24, 2.36, 2.14, 9.81, repro,
2000-08-10,5.43, -5.48, 10.19, 2.56, 2.06, 10.04, repro,
2000-08-11,4.32, -4.08, 16.55, 2.26, 1.99, 9.34, repro,
2000-08-12,3.43, -2.97, 9.75, 2.28, 1.98, 9.32, repro,